[[{"header":{"parameterUnit":"m.s-1","parameterCategory":1,"la1":30.2991,"la2":30.254,"lo1":-89.0895,"lo2":-89.0444,"dy":0.0017,"dx":0.0017,"nx":28,"ny":28,"refTime":"2023-08-16T09:00:00:Z","depth":0,"parameterNumber":2,"parameterNumberName":"U-component_of_WINDS"},"data":[0,0,0,0,0,0,0,0,0,0,0,0,0,0,0,0,0,0,0,0,0,0,0,0,0,0,0,0,0,0,0,0,0,0,0,0,0,0,0,0,0,0,0,0,0,0,0,0,0,0,0,0,0,0,0,0,0,0,-2.7942,-2.7943,0,-2.7998,-2.7999,-2.7999,-2.79,-2.7896,-2.7893,-2.789,-2.7947,-2.7951,-2.7956,0,0,0,0,0,0,0,0,0,0,0,0,0,-2.7747,-2.7751,-2.7942,-2.7943,-2.7943,-2.7998,-2.7999,-2.7999,-2.79,-2.7896,-2.7892,-2.7888,-2.7945,-2.7951,-2.7956,0,0,0,0,0,0,0,0,0,0,0,0,0,-2.782,-2.7753,-2.7942,-2.79,-2.7897,-2.7998,-2.7999,-2.8,-2.7901,-2.7896,-2.7891,-2.7886,-2.7943,-2.795,-2.7957,-2.8101,0,0,-2.7978,-2.7981,0,0,0,0,0,0,0,0,-2.7816,-2.7828,-2.7906,-2.7903,-2.79,-2.7937,-2.7951,-2.8033,-2.7902,-2.79,-2.789,-2.7884,-2.7947,-2.7954,-2.7975,-2.8103,-2.8106,-2.7979,-2.7983,-2.7986,-2.7988,0,0,0,0,0,0,0,-2.7812,-2.7825,-2.7964,-2.7907,-2.7904,-2.7878,-2.7883,-2.7966,-2.7951,-2.7899,-2.7892,-2.79,-2.7945,-2.7969,-2.7976,-2.8106,-2.7979,-2.7985,-2.7989,-2.7992,-2.8354,-2.8359,0,0,0,0,0,0,-2.7812,-2.7821,-2.7962,-2.7966,-2.7845,-2.7886,-2.7891,-2.793,-2.795,-2.7948,-2.7905,-2.7895,-2.7959,-2.7968,-2.7978,-2.8147,-2.7986,-2.7993,-2.7997,-2.8349,-2.8355,-2.8361,0,0,0,0,0,0,-2.7808,-2.7825,-2.796,-2.7892,-2.7907,-2.7895,-2.7939,-2.7934,-2.7958,-2.7954,-2.795,-2.7932,-2.7956,-2.7968,-2.8071,-2.8148,-2.7996,-2.8002,-2.8342,-2.8351,-2.8358,-2.8488,0,0,0,0,0,0,-2.7803,-2.7825,-2.788,-2.7894,-2.7911,-2.8053,-2.7943,-2.7938,-2.797,-2.7959,-2.7979,-2.7977,-2.7953,-2.8061,-2.8078,-2.8155,-2.8008,-2.8335,-2.8346,-2.8356,-2.8476,-2.8499,-2.8519,0,0,0,0,0,-2.7796,-2.7914,-2.7883,-2.79,-2.7979,-2.8058,-2.8068,-2.8038,-2.7976,-2.8031,-2.8029,-2.7976,-2.8136,-2.8072,-2.809,-2.817,-2.833,-2.8343,-2.8355,-2.8467,-2.8495,-2.8518,0,0,0,0,0,0,-2.7909,-2.7915,-2.7881,-2.8006,-2.8032,-2.8041,-2.8109,-2.8068,-2.8112,-2.8099,-2.8059,-2.8065,-2.8176,-2.8183,-2.8112,-2.831,-2.8223,-2.8239,-2.8302,-2.8328,-2.8349,-2.8346,-2.8013,0,0,0,0,0,-2.7949,-2.8013,-2.8013,-2.8124,-2.8139,-2.8122,-2.8155,-2.8129,-2.8155,-2.8165,-2.817,-2.8196,-2.8252,-2.829,-2.8341,-2.8476,-2.8479,-2.854,-2.8561,-2.8578,-2.8594,-2.8665,-2.8692,-2.8401,-2.8401,-2.8401,0,0,-2.8032,-2.8042,-2.8085,-2.8147,-2.8164,-2.8231,-2.8132,-2.8207,-2.8256,-2.8176,-2.8274,-2.8279,-2.8305,-2.8425,-2.8477,-2.8434,-2.8674,-2.8594,-2.8608,-2.8614,-2.8681,-2.8708,-2.8733,-2.841,-2.8408,-2.8407,0,0,-2.8216,-2.8231,-2.8325,-2.8344,-2.837,-2.8358,-2.8381,-2.8395,-2.8395,-2.8492,-2.8434,-2.8491,-2.8588,-2.861,-2.8633,-2.8824,-2.8778,-2.8842,-2.8953,-2.9023,-2.9046,-2.9066,-2.9135,-2.916,-2.8856,-2.8857,-2.8857,0,-2.8316,-2.8414,-2.8378,-2.8457,-2.8486,-2.8416,-2.8511,-2.8531,-2.8574,-2.8595,-2.8545,-2.8665,-2.8678,-2.8802,-2.8848,-2.8869,-2.8894,-2.884,-2.9046,-2.9065,-2.9084,-2.9149,-2.9175,-2.8864,-2.8864,-2.8863,-2.8862,0,-2.8535,-2.8604,-2.8677,-2.872,-2.8756,-2.8843,-2.8819,-2.8861,-2.8831,-2.8824,-2.8923,-2.8936,-2.8988,-2.9015,-2.8987,-2.9135,-2.9107,-2.9052,-2.8964,-2.912,-2.9181,-2.9205,-2.8875,-2.8873,-2.887,-2.8868,0,0,-2.8796,-2.8816,-2.8844,-2.8862,-2.8886,-2.8938,-2.9021,-2.9072,-2.9109,-2.9139,-2.9208,-2.929,-2.924,-2.9266,-2.9239,-2.9301,-2.9452,-2.9238,-2.9238,-2.9279,-2.9616,-2.9659,-2.9689,-2.942,-2.9425,-2.9429,-2.9614,0,-2.8981,-2.9124,-2.9093,-2.9233,-2.9297,-2.923,-2.9302,-2.9324,-2.9319,-2.9371,-2.9364,-2.9424,-2.9352,-2.9368,-2.9425,-2.9422,-2.952,-2.9407,-2.9484,-2.9487,-2.9482,-2.972,-2.9766,-2.9941,-2.9638,-2.9642,-2.9645,0,-2.9216,-2.9256,-2.9403,-2.9416,-2.9441,-2.9507,-2.9551,-2.9601,-2.9624,-2.9616,-2.9645,-2.9606,-2.9687,-2.9596,-2.9707,-2.9632,-2.9661,-2.9663,-2.9669,-2.9677,-2.9577,-2.9736,-2.9995,-3.0023,-2.9681,-2.9678,-2.9676,0,-2.9393,-2.9483,-2.9583,-2.96,-2.9617,-2.9665,-2.9674,-2.9692,-2.9725,-2.9762,-2.9783,-2.983,-2.9856,-2.9893,-2.9867,-2.9803,-2.9983,-2.989,-2.9978,-2.998,-3.0021,-3.002,-3.0291,-3.0037,-3.0037,-3.0036,-3.0036,0,-2.9604,-2.9697,-2.9663,-2.9724,-2.9826,-2.9788,-2.989,-2.9891,-2.9907,-2.9967,-2.9912,-2.9969,-2.9931,-2.9985,-2.9965,-3.006,-3.0072,-3.0068,-3.0062,-3.0074,-3.0075,-3.0094,-3.0082,-3.0043,-3.0042,-3.004,-3.0039,0,-2.982,-2.9801,-2.9905,-2.9912,-2.9916,-2.9991,-2.9997,-3.0054,-3.0043,-3.012,-3.0136,-3.012,-3.018,-3.0157,-3.0222,-3.0208,-3.033,-3.0307,-3.0323,-3.0318,-3.0409,-3.0401,-3.0704,-3.0742,-3.0462,-3.0465,-3.0467,0,-2.9957,-3.0027,-3.0042,-3.0078,-3.0091,-3.0151,-3.0183,-3.0148,-3.0184,-3.0215,-3.0268,-3.0324,-3.0367,-3.0467,-3.046,-3.0509,-3.0488,-3.059,-3.0495,-3.0505,-3.0491,-3.0488,-3.0495,-3.0611,-3.0614,-3.0616,-3.0619,0,-3.0203,-3.0189,-3.0239,-3.0286,-3.0326,-3.0361,-3.039,-3.0423,-3.0389,-3.0432,-3.0494,-3.0527,-3.0592,-3.0649,-3.0692,-3.07,-3.0655,-3.0648,-3.0672,-3.0686,-3.0693,-3.0692,-3.0378,-3.0642,-3.064,-3.0638,-3.0637,-3.0636,-3.0385,-3.0444,-3.0463,-3.052,-3.0538,-3.0567,-3.0621,-3.0617,-3.0667,-3.0718,-3.0693,-3.0765,-3.0784,-3.0838,-3.0852,-3.0907,-3.0867,-3.0901,-3.0909,-3.0919,-3.0931,-3.0683,-3.0914,-3.0914,-3.0913,-3.0912,-3.0912,0,-3.0629,-3.0637,-3.069,-3.0733,-3.0778,-3.0729,-3.0759,-3.08,-3.0863,-3.0885,-3.0928,-3.0998,-3.1052,-3.1049,-3.1099,-3.1143,-3.1123,-3.1157,-3.1155,-3.1158,-3.0964,-3.0939,-3.1173,-3.1172,-3.1172,-3.1172,-3.1172,-3.1172,-3.0761,-3.0859,-3.0847,-3.0953,-3.096,-3.103,-3.1051,-3.1077,-3.1094,-3.1176,-3.122,-3.1217,-3.1229,-3.1279,-3.1326,-3.1323,-3.1345,-3.1387,-3.1377,-3.1197,-3.1171,-3.1147,-3.1124,-3.1392,-3.1392,-3.1567,-3.1568,-3.157]},{"header":{"parameterUnit":"m.s-1","parameterCategory":1,"la1":30.2991,"la2":30.254,"lo1":-89.0895,"lo2":-89.0444,"dy":0.0017,"dx":0.0017,"nx":28,"ny":28,"refTime":"2023-08-16T09:00:00:Z","depth":0,"parameterNumber":3,"parameterNumberName":"V-component_of_WINDS"},"data":[0,0,0,0,0,0,0,0,0,0,0,0,0,0,0,0,0,0,0,0,0,0,0,0,0,0,0,0,0,0,0,0,0,0,0,0,0,0,0,0,0,0,0,0,0,0,0,0,0,0,0,0,0,0,0,0,0,0,-5.6703,-5.6703,0,-5.6769,-5.6769,-5.677,-5.668,-5.6677,-5.6673,-5.667,-5.6732,-5.6737,-5.6741,0,0,0,0,0,0,0,0,0,0,0,0,0,-5.6492,-5.6497,-5.6703,-5.6703,-5.6704,-5.6768,-5.6769,-5.677,-5.668,-5.6676,-5.6673,-5.6669,-5.6731,-5.6736,-5.6742,0,0,0,0,0,0,0,0,0,0,0,0,0,-5.6573,-5.6498,-5.6702,-5.6667,-5.6665,-5.6768,-5.6769,-5.677,-5.6681,-5.6676,-5.6671,-5.6667,-5.6729,-5.6736,-5.6743,-5.6882,0,0,-5.6764,-5.6767,0,0,0,0,0,0,0,0,-5.6569,-5.6581,-5.6672,-5.667,-5.6667,-5.6711,-5.6718,-5.6808,-5.6682,-5.6675,-5.667,-5.6665,-5.6729,-5.6735,-5.6758,-5.6885,-5.6887,-5.6765,-5.6769,-5.6772,-5.6774,0,0,0,0,0,0,0,-5.6563,-5.6578,-5.6728,-5.6673,-5.667,-5.6646,-5.6652,-5.6734,-5.6728,-5.6675,-5.6669,-5.6678,-5.6727,-5.6752,-5.6759,-5.6888,-5.6764,-5.6771,-5.6775,-5.6778,-5.713,-5.7135,0,0,0,0,0,0,-5.6563,-5.6574,-5.6726,-5.673,-5.6605,-5.6654,-5.6661,-5.6702,-5.6727,-5.6726,-5.6682,-5.6674,-5.6742,-5.6751,-5.6761,-5.6924,-5.6772,-5.6778,-5.6782,-5.7125,-5.7131,-5.7137,0,0,0,0,0,0,-5.6559,-5.6577,-5.6724,-5.665,-5.6667,-5.6663,-5.6709,-5.6706,-5.6731,-5.6732,-5.673,-5.6709,-5.6739,-5.6751,-5.6852,-5.6925,-5.6781,-5.6788,-5.7119,-5.7127,-5.7134,-5.7254,0,0,0,0,0,0,-5.6553,-5.6576,-5.6631,-5.6652,-5.6672,-5.6817,-5.6714,-5.671,-5.6744,-5.6733,-5.6757,-5.6756,-5.6736,-5.6843,-5.6859,-5.6932,-5.6793,-5.7112,-5.7123,-5.7132,-5.7243,-5.7265,-5.7283,0,0,0,0,0,-5.6546,-5.6661,-5.6634,-5.6653,-5.674,-5.6821,-5.6832,-5.6807,-5.675,-5.6803,-5.6804,-5.6756,-5.6915,-5.6854,-5.6872,-5.6948,-5.7108,-5.712,-5.7131,-5.7234,-5.726,-5.7282,0,0,0,0,0,0,-5.6647,-5.6663,-5.6634,-5.676,-5.679,-5.6806,-5.6873,-5.6836,-5.6882,-5.687,-5.6836,-5.6842,-5.695,-5.6959,-5.6891,-5.7083,-5.7001,-5.7017,-5.7074,-5.7098,-5.7118,-5.7113,-5.6799,0,0,0,0,0,-5.6684,-5.675,-5.676,-5.6871,-5.6887,-5.6878,-5.6912,-5.6891,-5.692,-5.6932,-5.6939,-5.6968,-5.7024,-5.7062,-5.7113,-5.7244,-5.7247,-5.7305,-5.7325,-5.7341,-5.7355,-5.7423,-5.7449,-5.7175,-5.7175,-5.7175,0,0,-5.6761,-5.6778,-5.6822,-5.6891,-5.6912,-5.6979,-5.6889,-5.6964,-5.7013,-5.6942,-5.7039,-5.7046,-5.7075,-5.7191,-5.7243,-5.7202,-5.7431,-5.7356,-5.7369,-5.7374,-5.7438,-5.7464,-5.7487,-5.7183,-5.7182,-5.7181,0,0,-5.6935,-5.6956,-5.705,-5.7073,-5.7106,-5.7098,-5.7121,-5.7142,-5.7145,-5.7241,-5.7189,-5.7245,-5.7344,-5.7366,-5.739,-5.7573,-5.7529,-5.759,-5.7694,-5.776,-5.7782,-5.7801,-5.7865,-5.7888,-5.7604,-5.7604,-5.7605,0,-5.7026,-5.7128,-5.7102,-5.7181,-5.7212,-5.7153,-5.7246,-5.7268,-5.7316,-5.7338,-5.7292,-5.7413,-5.7428,-5.7548,-5.7593,-5.7615,-5.7638,-5.7587,-5.7781,-5.78,-5.7817,-5.7878,-5.7902,-5.7612,-5.7611,-5.761,-5.7609,0,-5.7238,-5.7309,-5.738,-5.7429,-5.7468,-5.7554,-5.7539,-5.7581,-5.7556,-5.7553,-5.7651,-5.7667,-5.7721,-5.7747,-5.7723,-5.7864,-5.7837,-5.7787,-5.7704,-5.7851,-5.7907,-5.793,-5.7622,-5.7619,-5.7617,-5.7615,0,0,-5.7478,-5.7512,-5.7538,-5.7559,-5.7591,-5.7644,-5.7726,-5.778,-5.7816,-5.7851,-5.7917,-5.8001,-5.7955,-5.7982,-5.796,-5.8019,-5.816,-5.7961,-5.7961,-5.7996,-5.8314,-5.8352,-5.8379,-5.8132,-5.8136,-5.8139,-5.8312,0,-5.7652,-5.7796,-5.7774,-5.7912,-5.7976,-5.792,-5.7991,-5.8017,-5.8016,-5.8068,-5.8066,-5.8126,-5.806,-5.8076,-5.8132,-5.8132,-5.8223,-5.8119,-5.8191,-5.8194,-5.8186,-5.8409,-5.8449,-5.861,-5.8333,-5.8337,-5.834,0,-5.7874,-5.7919,-5.8064,-5.8085,-5.8111,-5.8175,-5.8222,-5.8274,-5.8301,-5.8296,-5.8327,-5.8293,-5.8372,-5.8289,-5.8397,-5.8326,-5.8354,-5.8358,-5.8363,-5.8369,-5.8276,-5.8419,-5.8661,-5.8686,-5.8374,-5.8372,-5.8369,0,-5.8034,-5.813,-5.8229,-5.8248,-5.8275,-5.8322,-5.8335,-5.8357,-5.8391,-5.8431,-5.8452,-5.85,-5.8527,-5.8564,-5.8544,-5.8485,-5.8654,-5.8569,-5.8651,-5.8652,-5.8689,-5.8687,-5.8938,-5.8709,-5.8708,-5.8708,-5.8707,0,-5.823,-5.8321,-5.8301,-5.8362,-5.8461,-5.8433,-5.8531,-5.8537,-5.8558,-5.8617,-5.857,-5.8626,-5.8596,-5.8649,-5.8633,-5.8724,-5.8737,-5.8733,-5.8728,-5.8737,-5.8738,-5.8755,-5.8743,-5.8714,-5.8713,-5.8711,-5.871,0,-5.8425,-5.8416,-5.852,-5.8537,-5.8543,-5.8615,-5.8628,-5.8684,-5.8679,-5.8755,-5.8771,-5.8762,-5.8823,-5.8806,-5.8871,-5.886,-5.8975,-5.8955,-5.8966,-5.8961,-5.9043,-5.9035,-5.9314,-5.9349,-5.9097,-5.91,-5.9102,0,-5.8551,-5.862,-5.8644,-5.8682,-5.8699,-5.8759,-5.8793,-5.8768,-5.8805,-5.8841,-5.8892,-5.8948,-5.8992,-5.909,-5.9088,-5.9137,-5.9118,-5.9212,-5.9125,-5.9132,-5.9118,-5.9114,-5.912,-5.9229,-5.9232,-5.9235,-5.9237,0,-5.8775,-5.8766,-5.8819,-5.8869,-5.8912,-5.895,-5.8983,-5.9015,-5.8992,-5.9036,-5.9098,-5.9132,-5.9198,-5.9254,-5.9298,-5.9309,-5.9269,-5.9264,-5.9285,-5.9295,-5.9299,-5.9297,-5.9013,-5.9258,-5.9256,-5.9254,-5.9253,-5.9252,-5.8938,-5.8996,-5.9023,-5.9082,-5.9104,-5.9137,-5.919,-5.9192,-5.9243,-5.9297,-5.9278,-5.9348,-5.9372,-5.9427,-5.9444,-5.9497,-5.9461,-5.9492,-5.9499,-5.9507,-5.9517,-5.9291,-5.9505,-5.9504,-5.9504,-5.9503,-5.9503,0,-5.9159,-5.9173,-5.9228,-5.9277,-5.9323,-5.9282,-5.9317,-5.9357,-5.9421,-5.9447,-5.9491,-5.9561,-5.9614,-5.9617,-5.9667,-5.9709,-5.9691,-5.9722,-5.9719,-5.9721,-5.9547,-5.9524,-5.9736,-5.9735,-5.9735,-5.9735,-5.9735,-5.9735,-5.9279,-5.9374,-5.9369,-5.9475,-5.9487,-5.9557,-5.958,-5.9609,-5.9629,-5.971,-5.9755,-5.9757,-5.9773,-5.9824,-5.987,-5.9869,-5.9889,-5.9928,-5.992,-5.9757,-5.9734,-5.9712,-5.9689,-5.9932,-5.9933,-6.0089,-6.0091,-6.0092]}]]